Weather History for KNQX - April, 2013

Change the Weather History Date:

Friday, April 19, 2013

  Actual Average Record
Temperature  
Mean Temperature 82 °F -  
Max Temperature 88 °F 82 °F 88 °F (1991)
Min Temperature 79 °F 72 °F 61 °F (1984)
Cooling Degree Days 18    
Growing Degree Days 32 (Base 50)    
Moisture  
Dew Point 73 °F    
Average Humidity 75    
Maximum Humidity 85    
Minimum Humidity 65    
Precipitation  
Precipitation 0.00 in - - ()
Sea Level Pressure  
Sea Level Pressure 30.00 in    
Wind  
Wind Speed 15 mph (SE)    
Max Wind Speed 18 mph    
Max Gust Speed 26 mph    
Visibility 10 miles    
Events      
Averages and records for this station are not official NWS values.
T = Trace of Precipitation, MM = Missing Value Source: NWS Daily Summary

Daily Weather History Graph

Daily Weather History Graph

Search for Another Location

Airport or City:

Trip Planner

Search our weather history database for the weather conditions in past years. The results will help you decide how hot, cold, wet, or windy it might be!

Date:

Astronomy

Apr. 19, 2013 Rise Set
Actual Time 7:01 AM EDT 7:50 PM EDT
Civil Twilight 6:37 AM EDT 8:14 PM EDT
Nautical Twilight 6:10 AM EDT 8:41 PM EDT
Astronomical Twilight 5:41 AM EDT 9:10 PM EDT
Moon 2:11 PM EDT (4/19) 2:35 AM EDT (4/19)
Length of Visible Light 13h 36m
Length of Day
12h 49m
First Quarter, 61% of the Moon is Illuminated
Apr 19
First Quarter
Apr 25
Full
May 2
Last Quarter
May 9
New
May 18
First Quarter

Hourly Weather History & Observations

Time (EDT) Temp. Heat Index Dew Point Humidity Pressure Visibility Wind Dir Wind Speed Gust Speed Precip Events Conditions
12:09 AM 80.6 °F 85.4 °F 73.4 °F 79% 30.00 in 10.0 mi SE 16.1 mph 25.3 mph N/A   Mostly Cloudy
12:44 AM 80.6 °F 85.4 °F 73.4 °F 79% 30.00 in 10.0 mi SE 18.4 mph - N/A   Scattered Clouds
12:53 AM 80.1 °F 84.2 °F 73.0 °F 79% 29.99 in 10.0 mi SE 18.4 mph 26.5 mph N/A   Scattered Clouds
1:53 AM 80.1 °F 84.2 °F 73.0 °F 79% 29.99 in 10.0 mi SE 16.1 mph 25.3 mph N/A   Mostly Cloudy
2:53 AM 80.1 °F 83.8 °F 72.0 °F 76% 29.97 in 10.0 mi SE 18.4 mph 23.0 mph N/A   Mostly Cloudy
3:53 AM 80.1 °F 83.8 °F 72.0 °F 76% 29.97 in 10.0 mi SE 17.3 mph 24.2 mph N/A   Partly Cloudy
4:53 AM 79.0 °F - 72.0 °F 79% 29.96 in 10.0 mi SE 13.8 mph 21.9 mph N/A   Clear
5:53 AM 79.0 °F - 72.0 °F 79% 29.96 in 9.0 mi SE 11.5 mph 21.9 mph N/A   Partly Cloudy
6:53 AM 79.0 °F - 71.1 °F 77% 29.98 in 10.0 mi SE 12.7 mph 20.7 mph N/A   Clear
7:53 AM 80.1 °F 83.8 °F 72.0 °F 76% 30.00 in 10.0 mi SE 13.8 mph 20.7 mph N/A   Partly Cloudy
8:53 AM 82.0 °F 87.4 °F 73.0 °F 74% 30.01 in 10.0 mi SE 16.1 mph - N/A   Partly Cloudy
9:53 AM 84.0 °F 89.6 °F 72.0 °F 67% 30.02 in 10.0 mi SE 13.8 mph - N/A   Partly Cloudy
10:53 AM 84.0 °F 89.0 °F 71.1 °F 65% 30.02 in 10.0 mi SSE 13.8 mph - N/A   Scattered Clouds
11:53 AM 84.9 °F 90.7 °F 72.0 °F 65% 30.02 in 10.0 mi SE 15.0 mph - N/A   Scattered Clouds
12:53 PM 84.9 °F 91.4 °F 73.0 °F 67% 30.01 in 10.0 mi SE 17.3 mph - N/A   Scattered Clouds
1:53 PM 86.0 °F 93.0 °F 73.0 °F 65% 30.00 in 10.0 mi SE 15.0 mph - N/A   Scattered Clouds
2:53 PM 86.0 °F 93.0 °F 73.0 °F 65% 29.99 in 10.0 mi SE 15.0 mph - N/A   Scattered Clouds
3:53 PM 86.0 °F 93.0 °F 73.0 °F 65% 29.97 in 10.0 mi ESE 17.3 mph - N/A   Scattered Clouds
4:53 PM 84.9 °F 90.7 °F 72.0 °F 65% 29.96 in 10.0 mi ESE 12.7 mph - N/A   Scattered Clouds
5:53 PM 84.0 °F 89.6 °F 72.0 °F 67% 29.95 in 10.0 mi ESE 16.1 mph - N/A   Scattered Clouds
6:53 PM 82.0 °F 87.4 °F 73.0 °F 74% 29.96 in 10.0 mi ESE 11.5 mph - N/A   Scattered Clouds
7:53 PM 80.1 °F 84.2 °F 73.0 °F 79% 29.96 in 10.0 mi ESE 9.2 mph - N/A   Mostly Cloudy
8:53 PM 79.0 °F - 73.9 °F 84% 29.99 in 10.0 mi ESE 9.2 mph - N/A   Mostly Cloudy
9:53 PM 80.1 °F 84.5 °F 73.9 °F 81% 30.03 in 10.0 mi ESE 11.5 mph - N/A   Mostly Cloudy
10:11 PM 80.6 °F 85.4 °F 73.4 °F 79% 30.04 in 10.0 mi SE 10.4 mph - N/A   Mostly Cloudy
10:22 PM 80.6 °F 85.4 °F 73.4 °F 79% 30.04 in 10.0 mi SE 13.8 mph - N/A   Scattered Clouds
10:53 PM 80.1 °F 85.1 °F 75.0 °F 85% 30.04 in 5.0 mi SE 9.2 mph - N/A   Haze
11:53 PM 80.1 °F 85.1 °F 75.0 °F 85% 30.03 in 10.0 mi SE 11.5 mph - N/A   Clear